This is the latest recevied weather packets stored in our database for station/object K0WOI. If no packets are shown the sender has not sent any weather packets the latest 10 day(s).
| Time | Temp. | Humidity | Pressure | Rain* | Wind** | Luminosity | Snow |
|---|---|---|---|---|---|---|---|
| 1777906286 | 20.56° C | 50% | 1000.5 hPa | 0 mm | - | 626 W/m² | - |
| 1777905982 | 20° C | 50% | 1000.3 hPa | 0 mm | - | 607 W/m² | - |
| 1777905679 | 20° C | 50% | 1000.5 hPa | 0 mm | - | 585 W/m² | - |
| 1777905376 | 18.89° C | 51% | 1000.7 hPa | 0 mm | - | 530 W/m² | - |
| 1777905074 | 18.89° C | 55% | 1001 hPa | 0 mm | - | 502 W/m² | - |
| 1777904771 | 18.33° C | 54% | 1000.7 hPa | 0 mm | - | 377 W/m² | - |
| 1777904468 | 17.78° C | 54% | 1000.7 hPa | 0 mm | - | 131 W/m² | - |
| 1777904164 | 17.78° C | 56% | 1000.9 hPa | 0 mm | - | 115 W/m² | - |
| 1777903862 | 17.22° C | 57% | 1001 hPa | 0 mm | - | 124 W/m² | - |
| 1777903558 | 16.67° C | 58% | 1000.9 hPa | 0 mm | - | 173 W/m² | - |
| 1777903254 | 16.11° C | 60% | 1000.9 hPa | 0 mm | - | 82 W/m² | - |
| 1777902951 | 15.56° C | 61% | 1001.3 hPa | 0 mm | - | 69 W/m² | - |
| 1777902648 | 15° C | 63% | 1001.3 hPa | 0 mm | - | 81 W/m² | - |
| 1777902345 | 15° C | 65% | 1001.2 hPa | 0 mm | - | 74 W/m² | - |
| 1777902042 | 14.44° C | 68% | 1001.1 hPa | 0 mm | - | 86 W/m² | - |
| 1777901740 | 14.44° C | 65% | 1001.4 hPa | 0 mm | - | 67 W/m² | - |
| 1777901437 | 13.89° C | 66% | 1001.2 hPa | 0 mm | - | 110 W/m² | - |
| 1777901135 | 13.33° C | 66% | 1001.6 hPa | 0 mm | - | 87 W/m² | - |
| 1777900832 | 13.33° C | 70% | 1001.4 hPa | 0 mm | - | 92 W/m² | - |
| 1777900529 | 12.78° C | 69% | 1001.2 hPa | 0 mm | - | 63 W/m² | - |
| 1777900226 | 12.22° C | 70% | 1001.3 hPa | 0 mm | - | 77 W/m² | - |
| 1777899922 | 11.67° C | 72% | 1001.5 hPa | 0 mm | - | 93 W/m² | - |
| 1777899620 | 11.67° C | 72% | 1001.5 hPa | 0 mm | - | 56 W/m² | - |
| 1777899317 | 11.67° C | 72% | 1001.5 hPa | 0 mm | - | 42 W/m² | - |
| 1777899015 | 11.67° C | 72% | 1001.5 hPa | 0 mm | - | 39 W/m² | - |
* Rain latest hour (hover to see other rain measurements)
** Current wind speed in m/s (hover to see current wind gust speed)